owner,sensor,date,latitude,longitude,vertical_datum,mass_concentration_of_oxygen_in_sea_water,qcFlag 
TCOON,ioos:station:TCOON:127:1,2019-09-01T06:30:00Z,28.2598,-96.7737,1.0,5.08,11111222 
TCOON,ioos:station:TCOON:127:1,2019-09-01T07:30:00Z,28.2598,-96.7737,1.0,4.8,11111222 
TCOON,ioos:station:TCOON:127:1,2019-09-01T08:30:00Z,28.2598,-96.7737,1.0,4.54,11111222 
TCOON,ioos:station:TCOON:127:1,2019-09-01T09:30:00Z,28.2598,-96.7737,1.0,4.08,11111222 
TCOON,ioos:station:TCOON:127:1,2019-09-01T10:30:00Z,28.2598,-96.7737,1.0,3.03,11111222 
TCOON,ioos:station:TCOON:127:1,2019-09-01T11:30:00Z,28.2598,-96.7737,1.0,4.32,11111222 
TCOON,ioos:station:TCOON:127:1,2019-09-01T12:30:00Z,28.2598,-96.7737,1.0,4.19,11111222 
TCOON,ioos:station:TCOON:127:1,2019-09-01T13:30:00Z,28.2598,-96.7737,1.0,4.2,11111222 
TCOON,ioos:station:TCOON:127:1,2019-09-01T14:30:00Z,28.2598,-96.7737,1.0,4.49,11111222 
TCOON,ioos:station:TCOON:127:1,2019-09-01T15:30:00Z,28.2598,-96.7737,1.0,4.34,11111222 
TCOON,ioos:station:TCOON:127:1,2019-09-01T16:30:00Z,28.2598,-96.7737,1.0,4.21,11111222 
TCOON,ioos:station:TCOON:127:1,2019-09-01T17:30:00Z,28.2598,-96.7737,1.0,4.2,11111222 
TCOON,ioos:station:TCOON:127:1,2019-09-01T18:30:00Z,28.2598,-96.7737,1.0,4.53,11111222 
TCOON,ioos:station:TCOON:127:1,2019-09-01T19:30:00Z,28.2598,-96.7737,1.0,5.4,11111222 
TCOON,ioos:station:TCOON:127:1,2019-09-01T20:30:00Z,28.2598,-96.7737,1.0,5.41,11111222 
TCOON,ioos:station:TCOON:127:1,2019-09-01T21:30:00Z,28.2598,-96.7737,1.0,3.52,11111222 
TCOON,ioos:station:TCOON:127:1,2019-09-01T22:30:00Z,28.2598,-96.7737,1.0,2.95,11111222 
TCOON,ioos:station:TCOON:127:1,2019-09-01T23:30:00Z,28.2598,-96.7737,1.0,4.64,11111222 
TCOON,ioos:station:TCOON:127:1,2019-09-02T00:30:00Z,28.2598,-96.7737,1.0,4.32,11111222 
TCOON,ioos:station:TCOON:127:1,2019-09-02T01:30:00Z,28.2598,-96.7737,1.0,4.34,11111222 
TCOON,ioos:station:TCOON:127:1,2019-09-02T02:30:00Z,28.2598,-96.7737,1.0,3.79,11111222 
TCOON,ioos:station:TCOON:127:1,2019-09-02T03:30:00Z,28.2598,-96.7737,1.0,3.47,11111222 
TCOON,ioos:station:TCOON:127:1,2019-09-02T04:30:00Z,28.2598,-96.7737,1.0,3.67,11111222 
TCOON,ioos:station:TCOON:127:1,2019-09-02T05:30:00Z,28.2598,-96.7737,1.0,3.34,11111222 
TCOON,ioos:station:TCOON:127:1,2019-09-02T06:30:00Z,28.2598,-96.7737,1.0,3.09,11111222 
TCOON,ioos:station:TCOON:127:1,2019-09-02T07:30:00Z,28.2598,-96.7737,1.0,2.52,11111222 
TCOON,ioos:station:TCOON:127:1,2019-09-02T08:30:00Z,28.2598,-96.7737,1.0,2.52,11111222 
TCOON,ioos:station:TCOON:127:1,2019-09-02T09:30:00Z,28.2598,-96.7737,1.0,2.68,11111222 
TCOON,ioos:station:TCOON:127:1,2019-09-02T10:30:00Z,28.2598,-96.7737,1.0,2.46,11111222 
TCOON,ioos:station:TCOON:127:1,2019-09-02T11:30:00Z,28.2598,-96.7737,1.0,2.46,11111222 
TCOON,ioos:station:TCOON:127:1,2019-09-02T12:30:00Z,28.2598,-96.7737,1.0,2.49,11111222 
TCOON,ioos:station:TCOON:127:1,2019-09-02T15:30:00Z,28.2598,-96.7737,1.0,2.6,11111222 
TCOON,ioos:station:TCOON:127:1,2019-09-02T16:30:00Z,28.2598,-96.7737,1.0,2.4,11111222 
TCOON,ioos:station:TCOON:127:1,2019-09-02T17:30:00Z,28.2598,-96.7737,1.0,2.52,11111222 
TCOON,ioos:station:TCOON:127:1,2019-09-02T18:30:00Z,28.2598,-96.7737,1.0,2.56,11111222 
TCOON,ioos:station:TCOON:127:1,2019-09-02T19:30:00Z,28.2598,-96.7737,1.0,2.65,11111222 
TCOON,ioos:station:TCOON:127:1,2019-09-02T20:30:00Z,28.2598,-96.7737,1.0,2.28,11111222 
TCOON,ioos:station:TCOON:127:1,2019-09-02T21:30:00Z,28.2598,-96.7737,1.0,2.2,11111222 
TCOON,ioos:station:TCOON:127:1,2019-09-02T22:30:00Z,28.2598,-96.7737,1.0,2.15,11111222 
TCOON,ioos:station:TCOON:127:1,2019-09-02T23:30:00Z,28.2598,-96.7737,1.0,2.11,11111222 
TCOON,ioos:station:TCOON:127:1,2019-09-03T00:30:00Z,28.2598,-96.7737,1.0,2.0,11111222 
TCOON,ioos:station:TCOON:127:1,2019-09-03T01:30:00Z,28.2598,-96.7737,1.0,1.89,11111222 
TCOON,ioos:station:TCOON:127:1,2019-09-03T02:30:00Z,28.2598,-96.7737,1.0,2.05,11111222 
TCOON,ioos:station:TCOON:127:1,2019-09-03T03:30:00Z,28.2598,-96.7737,1.0,1.98,11111222 
TCOON,ioos:station:TCOON:127:1,2019-09-03T04:30:00Z,28.2598,-96.7737,1.0,1.92,11111222 
TCOON,ioos:station:TCOON:127:1,2019-09-03T05:30:00Z,28.2598,-96.7737,1.0,1.67,11111222 
TCOON,ioos:station:TCOON:127:1,2019-09-03T06:30:00Z,28.2598,-96.7737,1.0,1.68,11111222 
TCOON,ioos:station:TCOON:127:1,2019-09-03T07:30:00Z,28.2598,-96.7737,1.0,1.76,11111222 
TCOON,ioos:station:TCOON:127:1,2019-09-03T08:30:00Z,28.2598,-96.7737,1.0,1.69,11111222 
TCOON,ioos:station:TCOON:127:1,2019-09-03T09:30:00Z,28.2598,-96.7737,1.0,1.54,11111222 
TCOON,ioos:station:TCOON:127:1,2019-09-03T10:30:00Z,28.2598,-96.7737,1.0,1.76,11111222 
TCOON,ioos:station:TCOON:127:1,2019-09-03T11:30:00Z,28.2598,-96.7737,1.0,1.81,11111222 
TCOON,ioos:station:TCOON:127:1,2019-09-03T12:30:00Z,28.2598,-96.7737,1.0,1.86,11111222 
TCOON,ioos:station:TCOON:127:1,2019-09-03T13:30:00Z,28.2598,-96.7737,1.0,1.85,11111222 
TCOON,ioos:station:TCOON:127:1,2019-09-03T14:30:00Z,28.2598,-96.7737,1.0,1.9,11111222 
TCOON,ioos:station:TCOON:127:1,2019-09-03T15:30:00Z,28.2598,-96.7737,1.0,1.8,11111222 
TCOON,ioos:station:TCOON:127:1,2019-09-03T16:30:00Z,28.2598,-96.7737,1.0,1.84,11111222 
TCOON,ioos:station:TCOON:127:1,2019-09-03T18:00:00Z,28.2598,-96.7737,1.0,7.84,11111222 
TCOON,ioos:station:TCOON:127:1,2019-09-03T18:30:00Z,28.2598,-96.7737,1.0,7.96,11111222 
TCOON,ioos:station:TCOON:127:1,2019-09-03T19:30:00Z,28.2598,-96.7737,1.0,8.06,11111222 
TCOON,ioos:station:TCOON:127:1,2019-09-03T20:30:00Z,28.2598,-96.7737,1.0,8.17,11111222 
TCOON,ioos:station:TCOON:127:1,2019-09-03T21:30:00Z,28.2598,-96.7737,1.0,8.3,11111222 
TCOON,ioos:station:TCOON:127:1,2019-09-03T22:30:00Z,28.2598,-96.7737,1.0,8.47,11111222 
TCOON,ioos:station:TCOON:127:1,2019-09-03T23:30:00Z,28.2598,-96.7737,1.0,8.43,11111222 
TCOON,ioos:station:TCOON:127:1,2019-09-04T00:30:00Z,28.2598,-96.7737,1.0,8.3,11111222 
TCOON,ioos:station:TCOON:127:1,2019-09-04T01:30:00Z,28.2598,-96.7737,1.0,8.08,11111222 
TCOON,ioos:station:TCOON:127:1,2019-09-04T02:30:00Z,28.2598,-96.7737,1.0,7.88,11111222 
TCOON,ioos:station:TCOON:127:1,2019-09-04T03:30:00Z,28.2598,-96.7737,1.0,7.82,11111222 
TCOON,ioos:station:TCOON:127:1,2019-09-04T04:30:00Z,28.2598,-96.7737,1.0,7.71,11111222 
TCOON,ioos:station:TCOON:127:1,2019-09-04T05:30:00Z,28.2598,-96.7737,1.0,7.63,11111222 
TCOON,ioos:station:TCOON:127:1,2019-09-04T06:30:00Z,28.2598,-96.7737,1.0,7.67,11111222 
TCOON,ioos:station:TCOON:127:1,2019-09-04T07:30:00Z,28.2598,-96.7737,1.0,7.56,11111222 
TCOON,ioos:station:TCOON:127:1,2019-09-04T08:30:00Z,28.2598,-96.7737,1.0,7.51,11111222 
TCOON,ioos:station:TCOON:127:1,2019-09-04T09:30:00Z,28.2598,-96.7737,1.0,7.46,11111222 
TCOON,ioos:station:TCOON:127:1,2019-09-04T10:30:00Z,28.2598,-96.7737,1.0,7.36,11111222 
TCOON,ioos:station:TCOON:127:1,2019-09-04T11:30:00Z,28.2598,-96.7737,1.0,7.2,11111222 
TCOON,ioos:station:TCOON:127:1,2019-09-04T12:30:00Z,28.2598,-96.7737,1.0,7.16,11111222 
TCOON,ioos:station:TCOON:127:1,2019-09-04T13:30:00Z,28.2598,-96.7737,1.0,7.16,11111222 
TCOON,ioos:station:TCOON:127:1,2019-09-04T14:30:00Z,28.2598,-96.7737,1.0,7.22,11111222 
TCOON,ioos:station:TCOON:127:1,2019-09-04T15:30:00Z,28.2598,-96.7737,1.0,7.32,11111222 
TCOON,ioos:station:TCOON:127:1,2019-09-04T16:30:00Z,28.2598,-96.7737,1.0,7.5,11111222 
TCOON,ioos:station:TCOON:127:1,2019-09-04T17:30:00Z,28.2598,-96.7737,1.0,7.53,11111222 
TCOON,ioos:station:TCOON:127:1,2019-09-04T18:30:00Z,28.2598,-96.7737,1.0,7.65,11111222 
TCOON,ioos:station:TCOON:127:1,2019-09-04T19:30:00Z,28.2598,-96.7737,1.0,7.71,11111222 
TCOON,ioos:station:TCOON:127:1,2019-09-04T20:30:00Z,28.2598,-96.7737,1.0,7.66,11111222 
TCOON,ioos:station:TCOON:127:1,2019-09-04T21:30:00Z,28.2598,-96.7737,1.0,7.74,11111222 
TCOON,ioos:station:TCOON:127:1,2019-09-04T22:30:00Z,28.2598,-96.7737,1.0,7.74,11111222 
TCOON,ioos:station:TCOON:127:1,2019-09-04T23:30:00Z,28.2598,-96.7737,1.0,7.61,11111222 
TCOON,ioos:station:TCOON:127:1,2019-09-05T00:30:00Z,28.2598,-96.7737,1.0,7.55,11111222 
TCOON,ioos:station:TCOON:127:1,2019-09-05T01:30:00Z,28.2598,-96.7737,1.0,7.47,11111222 
TCOON,ioos:station:TCOON:127:1,2019-09-05T02:30:00Z,28.2598,-96.7737,1.0,7.44,11111222 
TCOON,ioos:station:TCOON:127:1,2019-09-05T03:30:00Z,28.2598,-96.7737,1.0,7.37,11111222 
TCOON,ioos:station:TCOON:127:1,2019-09-05T04:30:00Z,28.2598,-96.7737,1.0,7.18,11111222 
TCOON,ioos:station:TCOON:127:1,2019-09-05T05:30:00Z,28.2598,-96.7737,1.0,7.21,11111222 
TCOON,ioos:station:TCOON:127:1,2019-09-05T06:30:00Z,28.2598,-96.7737,1.0,7.08,11111222 
TCOON,ioos:station:TCOON:127:1,2019-09-05T07:30:00Z,28.2598,-96.7737,1.0,6.77,11111222 
TCOON,ioos:station:TCOON:127:1,2019-09-05T08:30:00Z,28.2598,-96.7737,1.0,6.78,11111222 
TCOON,ioos:station:TCOON:127:1,2019-09-05T09:30:00Z,28.2598,-96.7737,1.0,6.36,11111222 
TCOON,ioos:station:TCOON:127:1,2019-09-05T10:30:00Z,28.2598,-96.7737,1.0,6.3,11111222 
TCOON,ioos:station:TCOON:127:1,2019-09-05T11:30:00Z,28.2598,-96.7737,1.0,6.66,11111222 
TCOON,ioos:station:TCOON:127:1,2019-09-05T12:30:00Z,28.2598,-96.7737,1.0,5.78,11111222 
TCOON,ioos:station:TCOON:127:1,2019-09-05T13:30:00Z,28.2598,-96.7737,1.0,6.5,11111222 
TCOON,ioos:station:TCOON:127:1,2019-09-05T14:30:00Z,28.2598,-96.7737,1.0,5.84,11111222 
TCOON,ioos:station:TCOON:127:1,2019-09-05T15:30:00Z,28.2598,-96.7737,1.0,6.44,11111222 
TCOON,ioos:station:TCOON:127:1,2019-09-05T16:30:00Z,28.2598,-96.7737,1.0,5.94,11111222 
TCOON,ioos:station:TCOON:127:1,2019-09-05T17:30:00Z,28.2598,-96.7737,1.0,5.84,11111222 
TCOON,ioos:station:TCOON:127:1,2019-09-05T18:30:00Z,28.2598,-96.7737,1.0,6.54,11111222 
TCOON,ioos:station:TCOON:127:1,2019-09-05T19:30:00Z,28.2598,-96.7737,1.0,6.36,11111222 
TCOON,ioos:station:TCOON:127:1,2019-09-05T20:30:00Z,28.2598,-96.7737,1.0,6.94,11111222 
TCOON,ioos:station:TCOON:127:1,2019-09-05T21:30:00Z,28.2598,-96.7737,1.0,7.35,11111222 
TCOON,ioos:station:TCOON:127:1,2019-09-05T22:30:00Z,28.2598,-96.7737,1.0,8.31,11111222 
TCOON,ioos:station:TCOON:127:1,2019-09-05T23:30:00Z,28.2598,-96.7737,1.0,9.01,11111222 
TCOON,ioos:station:TCOON:127:1,2019-09-06T00:30:00Z,28.2598,-96.7737,1.0,9.49,11111222 
TCOON,ioos:station:TCOON:127:1,2019-09-06T01:30:00Z,28.2598,-96.7737,1.0,9.08,11111222 
TCOON,ioos:station:TCOON:127:1,2019-09-06T02:30:00Z,28.2598,-96.7737,1.0,9.01,11111222 
TCOON,ioos:station:TCOON:127:1,2019-09-06T03:30:00Z,28.2598,-96.7737,1.0,8.77,11111222 
TCOON,ioos:station:TCOON:127:1,2019-09-06T04:30:00Z,28.2598,-96.7737,1.0,8.62,11111222 
TCOON,ioos:station:TCOON:127:1,2019-09-06T07:00:00Z,28.2598,-96.7737,1.0,8.13,11111222 
TCOON,ioos:station:TCOON:127:1,2019-09-06T08:30:00Z,28.2598,-96.7737,1.0,7.8,11111222 
TCOON,ioos:station:TCOON:127:1,2019-09-06T09:30:00Z,28.2598,-96.7737,1.0,7.82,11111222 
TCOON,ioos:station:TCOON:127:1,2019-09-06T10:30:00Z,28.2598,-96.7737,1.0,7.87,11111222 
TCOON,ioos:station:TCOON:127:1,2019-09-06T11:30:00Z,28.2598,-96.7737,1.0,9.13,11111222 
TCOON,ioos:station:TCOON:127:1,2019-09-06T12:30:00Z,28.2598,-96.7737,1.0,8.75,11111222 
TCOON,ioos:station:TCOON:127:1,2019-09-06T13:30:00Z,28.2598,-96.7737,1.0,8.7,11111222 
TCOON,ioos:station:TCOON:127:1,2019-09-06T14:30:00Z,28.2598,-96.7737,1.0,8.83,11111222 
TCOON,ioos:station:TCOON:127:1,2019-09-06T15:30:00Z,28.2598,-96.7737,1.0,8.81,11111222 
TCOON,ioos:station:TCOON:127:1,2019-09-06T16:30:00Z,28.2598,-96.7737,1.0,9.03,11111222 
TCOON,ioos:station:TCOON:127:1,2019-09-06T17:30:00Z,28.2598,-96.7737,1.0,8.91,11111222 
TCOON,ioos:station:TCOON:127:1,2019-09-06T18:30:00Z,28.2598,-96.7737,1.0,8.62,11111222 
TCOON,ioos:station:TCOON:127:1,2019-09-06T19:30:00Z,28.2598,-96.7737,1.0,9.27,11111222 
TCOON,ioos:station:TCOON:127:1,2019-09-06T20:30:00Z,28.2598,-96.7737,1.0,9.48,11111222 
TCOON,ioos:station:TCOON:127:1,2019-09-06T21:30:00Z,28.2598,-96.7737,1.0,9.68,11111222 
TCOON,ioos:station:TCOON:127:1,2019-09-06T22:30:00Z,28.2598,-96.7737,1.0,9.73,11111222 
TCOON,ioos:station:TCOON:127:1,2019-09-06T23:30:00Z,28.2598,-96.7737,1.0,9.8,11111222 
TCOON,ioos:station:TCOON:127:1,2019-09-07T00:30:00Z,28.2598,-96.7737,1.0,9.54,11111222 
TCOON,ioos:station:TCOON:127:1,2019-09-07T01:30:00Z,28.2598,-96.7737,1.0,9.35,11111222 
TCOON,ioos:station:TCOON:127:1,2019-09-07T02:30:00Z,28.2598,-96.7737,1.0,9.1,11111222 
TCOON,ioos:station:TCOON:127:1,2019-09-07T03:30:00Z,28.2598,-96.7737,1.0,8.75,11111222 
TCOON,ioos:station:TCOON:127:1,2019-09-07T04:30:00Z,28.2598,-96.7737,1.0,8.55,11111222 
TCOON,ioos:station:TCOON:127:1,2019-09-07T05:30:00Z,28.2598,-96.7737,1.0,8.46,11111222 
TCOON,ioos:station:TCOON:127:1,2019-09-07T06:30:00Z,28.2598,-96.7737,1.0,8.3,11111222 
TCOON,ioos:station:TCOON:127:1,2019-09-07T07:30:00Z,28.2598,-96.7737,1.0,7.97,11111222 
TCOON,ioos:station:TCOON:127:1,2019-09-07T08:30:00Z,28.2598,-96.7737,1.0,7.77,11111222 
TCOON,ioos:station:TCOON:127:1,2019-09-07T09:30:00Z,28.2598,-96.7737,1.0,7.48,11111222 
TCOON,ioos:station:TCOON:127:1,2019-09-07T10:30:00Z,28.2598,-96.7737,1.0,7.33,11111222 
TCOON,ioos:station:TCOON:127:1,2019-09-07T11:30:00Z,28.2598,-96.7737,1.0,7.32,11111222 
TCOON,ioos:station:TCOON:127:1,2019-09-07T12:30:00Z,28.2598,-96.7737,1.0,7.03,11111222 
TCOON,ioos:station:TCOON:127:1,2019-09-07T13:30:00Z,28.2598,-96.7737,1.0,6.97,11111222 
TCOON,ioos:station:TCOON:127:1,2019-09-07T14:30:00Z,28.2598,-96.7737,1.0,6.89,11111222 
TCOON,ioos:station:TCOON:127:1,2019-09-07T15:30:00Z,28.2598,-96.7737,1.0,7.1,11111222 
TCOON,ioos:station:TCOON:127:1,2019-09-07T16:30:00Z,28.2598,-96.7737,1.0,7.92,11111222 
TCOON,ioos:station:TCOON:127:1,2019-09-07T17:30:00Z,28.2598,-96.7737,1.0,8.1,11111222 
TCOON,ioos:station:TCOON:127:1,2019-09-07T18:30:00Z,28.2598,-96.7737,1.0,8.97,11111222 
TCOON,ioos:station:TCOON:127:1,2019-09-07T19:30:00Z,28.2598,-96.7737,1.0,8.63,11111222 
TCOON,ioos:station:TCOON:127:1,2019-09-07T20:30:00Z,28.2598,-96.7737,1.0,10.43,11133222 
TCOON,ioos:station:TCOON:127:1,2019-09-07T21:30:00Z,28.2598,-96.7737,1.0,10.62,11133222 
TCOON,ioos:station:TCOON:127:1,2019-09-07T22:30:00Z,28.2598,-96.7737,1.0,10.69,11133222 
TCOON,ioos:station:TCOON:127:1,2019-09-07T23:30:00Z,28.2598,-96.7737,1.0,10.55,11133222 
TCOON,ioos:station:TCOON:127:1,2019-09-08T00:30:00Z,28.2598,-96.7737,1.0,10.29,11133222 
TCOON,ioos:station:TCOON:127:1,2019-09-08T01:30:00Z,28.2598,-96.7737,1.0,9.68,11111222 
TCOON,ioos:station:TCOON:127:1,2019-09-08T02:30:00Z,28.2598,-96.7737,1.0,9.31,11111222 
TCOON,ioos:station:TCOON:127:1,2019-09-08T03:30:00Z,28.2598,-96.7737,1.0,8.83,11111222 
TCOON,ioos:station:TCOON:127:1,2019-09-08T04:30:00Z,28.2598,-96.7737,1.0,8.36,11111222 
TCOON,ioos:station:TCOON:127:1,2019-09-08T05:30:00Z,28.2598,-96.7737,1.0,8.16,11111222 
TCOON,ioos:station:TCOON:127:1,2019-09-08T06:30:00Z,28.2598,-96.7737,1.0,7.81,11111222 
TCOON,ioos:station:TCOON:127:1,2019-09-08T07:30:00Z,28.2598,-96.7737,1.0,7.5,11111222 
TCOON,ioos:station:TCOON:127:1,2019-09-08T08:30:00Z,28.2598,-96.7737,1.0,7.61,11111222 
TCOON,ioos:station:TCOON:127:1,2019-09-08T09:30:00Z,28.2598,-96.7737,1.0,7.45,11111222 
TCOON,ioos:station:TCOON:127:1,2019-09-08T10:30:00Z,28.2598,-96.7737,1.0,7.31,11111222 
TCOON,ioos:station:TCOON:127:1,2019-09-08T11:30:00Z,28.2598,-96.7737,1.0,7.12,11111222 
TCOON,ioos:station:TCOON:127:1,2019-09-08T12:30:00Z,28.2598,-96.7737,1.0,6.75,11111222 
TCOON,ioos:station:TCOON:127:1,2019-09-08T13:30:00Z,28.2598,-96.7737,1.0,6.85,11111222 
TCOON,ioos:station:TCOON:127:1,2019-09-08T14:30:00Z,28.2598,-96.7737,1.0,7.0,11111222 
TCOON,ioos:station:TCOON:127:1,2019-09-08T15:30:00Z,28.2598,-96.7737,1.0,7.22,11111222 
TCOON,ioos:station:TCOON:127:1,2019-09-08T16:30:00Z,28.2598,-96.7737,1.0,7.56,11111222 
TCOON,ioos:station:TCOON:127:1,2019-09-08T17:30:00Z,28.2598,-96.7737,1.0,7.67,11111222 
TCOON,ioos:station:TCOON:127:1,2019-09-08T18:30:00Z,28.2598,-96.7737,1.0,7.93,11111222 
TCOON,ioos:station:TCOON:127:1,2019-09-08T19:30:00Z,28.2598,-96.7737,1.0,8.01,11111222 
TCOON,ioos:station:TCOON:127:1,2019-09-08T20:30:00Z,28.2598,-96.7737,1.0,8.08,11111222 
TCOON,ioos:station:TCOON:127:1,2019-09-08T21:30:00Z,28.2598,-96.7737,1.0,8.14,11111222 
TCOON,ioos:station:TCOON:127:1,2019-09-08T22:30:00Z,28.2598,-96.7737,1.0,8.11,11111222 
TCOON,ioos:station:TCOON:127:1,2019-09-09T00:30:00Z,28.2598,-96.7737,1.0,7.98,11111222 
TCOON,ioos:station:TCOON:127:1,2019-09-09T01:30:00Z,28.2598,-96.7737,1.0,7.92,11111222 
TCOON,ioos:station:TCOON:127:1,2019-09-09T02:30:00Z,28.2598,-96.7737,1.0,7.69,11111222 
TCOON,ioos:station:TCOON:127:1,2019-09-09T03:30:00Z,28.2598,-96.7737,1.0,7.57,11111222 
TCOON,ioos:station:TCOON:127:1,2019-09-09T04:30:00Z,28.2598,-96.7737,1.0,7.59,11111222 
TCOON,ioos:station:TCOON:127:1,2019-09-09T05:30:00Z,28.2598,-96.7737,1.0,7.4,11111222 
TCOON,ioos:station:TCOON:127:1,2019-09-09T06:30:00Z,28.2598,-96.7737,1.0,7.34,11111222 
TCOON,ioos:station:TCOON:127:1,2019-09-09T07:30:00Z,28.2598,-96.7737,1.0,7.16,11111222 
TCOON,ioos:station:TCOON:127:1,2019-09-09T08:30:00Z,28.2598,-96.7737,1.0,6.88,11111222 
TCOON,ioos:station:TCOON:127:1,2019-09-09T09:30:00Z,28.2598,-96.7737,1.0,6.8,11111222 
TCOON,ioos:station:TCOON:127:1,2019-09-09T10:30:00Z,28.2598,-96.7737,1.0,6.68,11111222 
TCOON,ioos:station:TCOON:127:1,2019-09-09T11:30:00Z,28.2598,-96.7737,1.0,6.61,11111222 
TCOON,ioos:station:TCOON:127:1,2019-09-09T12:30:00Z,28.2598,-96.7737,1.0,6.57,11111222 
TCOON,ioos:station:TCOON:127:1,2019-09-09T13:30:00Z,28.2598,-96.7737,1.0,6.08,11111222 
TCOON,ioos:station:TCOON:127:1,2019-09-09T15:00:00Z,28.2598,-96.7737,1.0,5.99,11111222 
TCOON,ioos:station:TCOON:127:1,2019-09-09T15:30:00Z,28.2598,-96.7737,1.0,5.99,11111222 
TCOON,ioos:station:TCOON:127:1,2019-09-09T16:30:00Z,28.2598,-96.7737,1.0,6.51,11111222 
TCOON,ioos:station:TCOON:127:1,2019-09-09T17:30:00Z,28.2598,-96.7737,1.0,6.79,11111222 
TCOON,ioos:station:TCOON:127:1,2019-09-09T21:30:00Z,28.2598,-96.7737,1.0,7.48,11111222 
TCOON,ioos:station:TCOON:127:1,2019-09-09T22:30:00Z,28.2598,-96.7737,1.0,7.34,11111222 
TCOON,ioos:station:TCOON:127:1,2019-09-09T23:30:00Z,28.2598,-96.7737,1.0,7.66,11111222 
TCOON,ioos:station:TCOON:127:1,2019-09-10T00:30:00Z,28.2598,-96.7737,1.0,7.18,11111222 
TCOON,ioos:station:TCOON:127:1,2019-09-10T01:30:00Z,28.2598,-96.7737,1.0,7.41,11111222 
TCOON,ioos:station:TCOON:127:1,2019-09-10T02:30:00Z,28.2598,-96.7737,1.0,6.76,11111222 
TCOON,ioos:station:TCOON:127:1,2019-09-10T03:30:00Z,28.2598,-96.7737,1.0,6.82,11111222 
TCOON,ioos:station:TCOON:127:1,2019-09-10T04:30:00Z,28.2598,-96.7737,1.0,6.39,11111222 
TCOON,ioos:station:TCOON:127:1,2019-09-10T05:30:00Z,28.2598,-96.7737,1.0,5.74,11111222 
TCOON,ioos:station:TCOON:127:1,2019-09-10T06:30:00Z,28.2598,-96.7737,1.0,5.39,11111222 
TCOON,ioos:station:TCOON:127:1,2019-09-10T07:30:00Z,28.2598,-96.7737,1.0,5.58,11111222 
TCOON,ioos:station:TCOON:127:1,2019-09-10T08:30:00Z,28.2598,-96.7737,1.0,5.19,11111222 
TCOON,ioos:station:TCOON:127:1,2019-09-10T09:30:00Z,28.2598,-96.7737,1.0,5.17,11111222 
TCOON,ioos:station:TCOON:127:1,2019-09-10T10:30:00Z,28.2598,-96.7737,1.0,5.12,11111222 
TCOON,ioos:station:TCOON:127:1,2019-09-10T11:30:00Z,28.2598,-96.7737,1.0,4.93,11111222 
TCOON,ioos:station:TCOON:127:1,2019-09-10T12:30:00Z,28.2598,-96.7737,1.0,5.01,11111222 
TCOON,ioos:station:TCOON:127:1,2019-09-10T13:30:00Z,28.2598,-96.7737,1.0,4.8,11111222 
TCOON,ioos:station:TCOON:127:1,2019-09-10T14:30:00Z,28.2598,-96.7737,1.0,4.89,11111222 
TCOON,ioos:station:TCOON:127:1,2019-09-10T15:30:00Z,28.2598,-96.7737,1.0,5.0,11111222 
TCOON,ioos:station:TCOON:127:1,2019-09-10T16:30:00Z,28.2598,-96.7737,1.0,5.49,11111222 
TCOON,ioos:station:TCOON:127:1,2019-09-10T17:30:00Z,28.2598,-96.7737,1.0,5.74,11111222 
TCOON,ioos:station:TCOON:127:1,2019-09-10T18:30:00Z,28.2598,-96.7737,1.0,5.64,11111222 
TCOON,ioos:station:TCOON:127:1,2019-09-10T19:30:00Z,28.2598,-96.7737,1.0,5.67,11111222 
TCOON,ioos:station:TCOON:127:1,2019-09-10T20:30:00Z,28.2598,-96.7737,1.0,5.88,11111222 
TCOON,ioos:station:TCOON:127:1,2019-09-10T21:30:00Z,28.2598,-96.7737,1.0,5.68,11111222 
TCOON,ioos:station:TCOON:127:1,2019-09-10T22:30:00Z,28.2598,-96.7737,1.0,5.6,11111222 
TCOON,ioos:station:TCOON:127:1,2019-09-10T23:30:00Z,28.2598,-96.7737,1.0,5.92,11111222 
TCOON,ioos:station:TCOON:127:1,2019-09-11T00:30:00Z,28.2598,-96.7737,1.0,5.46,11111222 
TCOON,ioos:station:TCOON:127:1,2019-09-11T01:30:00Z,28.2598,-96.7737,1.0,5.35,11111222 
TCOON,ioos:station:TCOON:127:1,2019-09-11T02:30:00Z,28.2598,-96.7737,1.0,4.79,11111222 
TCOON,ioos:station:TCOON:127:1,2019-09-11T03:30:00Z,28.2598,-96.7737,1.0,4.91,11111222 
TCOON,ioos:station:TCOON:127:1,2019-09-11T04:30:00Z,28.2598,-96.7737,1.0,4.86,11111222 
TCOON,ioos:station:TCOON:127:1,2019-09-11T06:00:00Z,28.2598,-96.7737,1.0,4.06,11111222 
TCOON,ioos:station:TCOON:127:1,2019-09-11T06:30:00Z,28.2598,-96.7737,1.0,4.19,11111222 
TCOON,ioos:station:TCOON:127:1,2019-09-11T07:30:00Z,28.2598,-96.7737,1.0,3.98,11111222 
TCOON,ioos:station:TCOON:127:1,2019-09-11T08:30:00Z,28.2598,-96.7737,1.0,3.78,11111222 
TCOON,ioos:station:TCOON:127:1,2019-09-11T09:30:00Z,28.2598,-96.7737,1.0,3.65,11111222 
TCOON,ioos:station:TCOON:127:1,2019-09-11T10:30:00Z,28.2598,-96.7737,1.0,3.88,11111222 
TCOON,ioos:station:TCOON:127:1,2019-09-11T11:30:00Z,28.2598,-96.7737,1.0,3.64,11111222 
TCOON,ioos:station:TCOON:127:1,2019-09-11T12:30:00Z,28.2598,-96.7737,1.0,3.09,11111222 
TCOON,ioos:station:TCOON:127:1,2019-09-11T13:30:00Z,28.2598,-96.7737,1.0,2.97,11111222 
TCOON,ioos:station:TCOON:127:1,2019-09-11T14:30:00Z,28.2598,-96.7737,1.0,2.8,11111222 
TCOON,ioos:station:TCOON:127:1,2019-09-11T15:30:00Z,28.2598,-96.7737,1.0,2.98,11111222 
TCOON,ioos:station:TCOON:127:1,2019-09-11T16:30:00Z,28.2598,-96.7737,1.0,2.96,11111222 
TCOON,ioos:station:TCOON:127:1,2019-09-11T17:30:00Z,28.2598,-96.7737,1.0,3.02,11111222 
TCOON,ioos:station:TCOON:127:1,2019-09-11T18:30:00Z,28.2598,-96.7737,1.0,3.24,11111222 
TCOON,ioos:station:TCOON:127:1,2019-09-11T19:30:00Z,28.2598,-96.7737,1.0,3.14,11111222 
TCOON,ioos:station:TCOON:127:1,2019-09-11T20:30:00Z,28.2598,-96.7737,1.0,4.18,11111222 
TCOON,ioos:station:TCOON:127:1,2019-09-11T21:30:00Z,28.2598,-96.7737,1.0,2.47,11111222 
TCOON,ioos:station:TCOON:127:1,2019-09-11T22:30:00Z,28.2598,-96.7737,1.0,3.67,11111222 
TCOON,ioos:station:TCOON:127:1,2019-09-11T23:30:00Z,28.2598,-96.7737,1.0,2.67,11111222 
TCOON,ioos:station:TCOON:127:1,2019-09-12T00:30:00Z,28.2598,-96.7737,1.0,1.91,11111222 
TCOON,ioos:station:TCOON:127:1,2019-09-12T01:30:00Z,28.2598,-96.7737,1.0,3.0,11111222 
TCOON,ioos:station:TCOON:127:1,2019-09-12T02:30:00Z,28.2598,-96.7737,1.0,2.75,11111222 
TCOON,ioos:station:TCOON:127:1,2019-09-12T03:30:00Z,28.2598,-96.7737,1.0,1.92,11111222 
TCOON,ioos:station:TCOON:127:1,2019-09-12T04:30:00Z,28.2598,-96.7737,1.0,2.32,11111222 
TCOON,ioos:station:TCOON:127:1,2019-09-12T05:30:00Z,28.2598,-96.7737,1.0,2.06,11111222 
TCOON,ioos:station:TCOON:127:1,2019-09-12T06:30:00Z,28.2598,-96.7737,1.0,2.14,11111222 
TCOON,ioos:station:TCOON:127:1,2019-09-12T07:30:00Z,28.2598,-96.7737,1.0,2.4,11111222 
TCOON,ioos:station:TCOON:127:1,2019-09-12T08:30:00Z,28.2598,-96.7737,1.0,2.76,11111222 
TCOON,ioos:station:TCOON:127:1,2019-09-12T09:30:00Z,28.2598,-96.7737,1.0,2.1,11111222 
TCOON,ioos:station:TCOON:127:1,2019-09-12T10:30:00Z,28.2598,-96.7737,1.0,2.05,11111222 
TCOON,ioos:station:TCOON:127:1,2019-09-12T11:30:00Z,28.2598,-96.7737,1.0,1.84,11111222 
TCOON,ioos:station:TCOON:127:1,2019-09-12T12:30:00Z,28.2598,-96.7737,1.0,1.66,11111222 
TCOON,ioos:station:TCOON:127:1,2019-09-12T13:30:00Z,28.2598,-96.7737,1.0,1.89,11111222 
TCOON,ioos:station:TCOON:127:1,2019-09-12T14:30:00Z,28.2598,-96.7737,1.0,2.01,11111222 
TCOON,ioos:station:TCOON:127:1,2019-09-12T15:30:00Z,28.2598,-96.7737,1.0,2.04,11111222 
TCOON,ioos:station:TCOON:127:1,2019-09-13T19:30:00Z,28.2598,-96.7737,1.0,0.96,11111222 
TCOON,ioos:station:TCOON:127:1,2019-09-13T20:30:00Z,28.2598,-96.7737,1.0,1.32,11111222 
TCOON,ioos:station:TCOON:127:1,2019-09-13T21:30:00Z,28.2598,-96.7737,1.0,1.53,11111222 
TCOON,ioos:station:TCOON:127:1,2019-09-13T22:30:00Z,28.2598,-96.7737,1.0,1.42,11111222 
TCOON,ioos:station:TCOON:127:1,2019-09-13T23:30:00Z,28.2598,-96.7737,1.0,0.98,11111222 